Weather History for Ord, NE

Change the Weather History Date:

Saturday, December 8, 2012

  Actual Average Record
Temperature  
Mean Temperature 27 °F 26 °F  
Max Temperature 36 °F 38 °F 61 °F (2006)
Min Temperature 18 °F 14 °F -6 °F (2005)
Degree Days  
Heating Degree Days 38    
Month to date heating degree days 204  
Since 1 July heating degree days 1730  
Cooling Degree Days 0    
Month to date cooling degree days 0  
Year to date cooling degree days 1220  
Moisture  
Dew Point 25 °F    
Average Humidity 81    
Maximum Humidity 92    
Minimum Humidity 70    
Precipitation  
Precipitation 0.00 in 0.03 in 0.53 in (1899)
Month to date precipitation T 0.34  
Year to date precipitation 11.49 24.69  
Sea Level Pressure  
Sea Level Pressure 29.90 in    
Wind  
Wind Speed 7 mph (SSE)    
Max Wind Speed 17 mph    
Max Gust Speed 24 mph    
Visibility 7 miles    
Events      
T = Trace of Precipitation, MM = Missing Value Source: NWS Daily Summary

Daily Weather History Graph

Daily Weather History Graph

Search for Another Location

Airport:

Trip Planner

Search our weather history database for the weather conditions in past years. The results will help you decide how hot, cold, wet, or windy it might be!

Date:

Astronomy

Dec. 08, 2012 Rise Set
Actual Time 7:50 AM CST 5:05 PM CST
Civil Twilight 7:19 AM CST 5:36 PM CST
Nautical Twilight 6:44 AM CST 6:11 PM CST
Astronomical Twilight 6:10 AM CST 6:45 PM CST
Moon 2:13 AM CST (12/8) 1:39 PM CST (12/8)
Length of Visible Light 10h 17m
Length of Day
9h 15m
Waning Crescent, 28% of the Moon is Illuminated
Dec 8
Waning Crescent
Dec 13
New
Dec 19
First Quarter
Dec 28
Full
Jan 4
Last Quarter

Hourly Weather History & Observations

Time (CST) Temp. Windchill Dew Point Humidity Pressure Visibility Wind Dir Wind Speed Gust Speed Precip Events Conditions
12:53 AM 25.0 °F - 21.9 °F 88% 30.04 in 7.0 mi Calm Calm - N/A   Overcast
1:53 AM 27.0 °F - 25.0 °F 92% 30.02 in 7.0 mi Calm Calm - N/A   Overcast
2:53 AM 25.0 °F 19.3 °F 21.9 °F 88% 30.02 in 7.0 mi SSW 4.6 mph - N/A   Overcast
3:53 AM 27.0 °F - 24.1 °F 89% 30.00 in 8.0 mi Calm Calm - N/A   Overcast
4:53 AM 24.1 °F - 21.9 °F 91% 29.99 in 8.0 mi Calm Calm - N/A   Scattered Clouds
5:41 AM 19.4 °F - 17.6 °F 93% 29.92 in 1.8 mi Calm Calm - N/A   Clear
5:53 AM 19.0 °F - 17.1 °F 92% 29.98 in 3.0 mi Calm Calm - N/A   Clear
6:53 AM 23.0 °F 18.4 °F 19.9 °F 88% 29.98 in 7.0 mi SSE 3.5 mph - N/A   Clear
7:53 AM 21.9 °F - 19.9 °F 92% 29.98 in 7.0 mi Calm Calm - N/A   Overcast
8:53 AM 26.1 °F 19.4 °F 23.0 °F 88% 30.00 in 7.0 mi South 5.8 mph - N/A   Overcast
9:53 AM 28.0 °F 20.8 °F 24.1 °F 85% 29.97 in 7.0 mi SE 6.9 mph - N/A   Mostly Cloudy
10:05 AM 28.4 °F 19.7 °F 24.8 °F 86% 29.90 in 7.0 mi SSE 9.2 mph - N/A   Mostly Cloudy
10:16 AM 28.4 °F 19.1 °F 24.8 °F 86% 29.89 in 7.0 mi SSE 10.4 mph - N/A   Mostly Cloudy
10:53 AM 28.9 °F 19.2 °F 25.0 °F 85% 29.96 in 7.0 mi SSE 11.5 mph - N/A   Overcast
11:53 AM 30.0 °F 20.0 °F 25.0 °F 82% 29.95 in 6.0 mi South 12.7 mph - N/A   Haze
12:38 PM 33.8 °F 24.8 °F 26.6 °F 75% 29.83 in 5.0 mi SSE 12.7 mph - N/A   Haze
12:53 PM 33.1 °F 23.9 °F 26.1 °F 75% 29.88 in 5.0 mi SE 12.7 mph - N/A   Haze
1:53 PM 35.1 °F 25.2 °F 26.1 °F 70% 29.84 in 10.0 mi SSE 16.1 mph - N/A   Overcast
2:53 PM 36.0 °F 28.0 °F 26.1 °F 67% 29.80 in 9.0 mi SSE 11.5 mph 18.4 mph N/A   Overcast
3:53 PM 35.1 °F 25.9 °F 27.0 °F 72% 29.81 in 6.0 mi South 13.8 mph - N/A   Haze
4:53 PM 35.1 °F 27.4 °F 27.0 °F 72% 29.84 in 7.0 mi South 10.4 mph - N/A   Overcast
5:53 PM 32.0 °F 24.8 °F 26.1 °F 79% 29.84 in 7.0 mi SE 8.1 mph - N/A   Clear
6:53 PM 33.8 °F 24.8 °F 26.6 °F 75% 29.74 in 8.0 mi SSE 12.7 mph 23.0 mph N/A   Overcast
7:36 PM 33.8 °F 27.7 °F 26.6 °F 75% 29.76 in 7.0 mi SE 6.9 mph - N/A   Mostly Cloudy
7:53 PM 32.0 °F 26.4 °F 28.0 °F 85% 29.84 in 7.0 mi SE 5.8 mph - N/A   Mostly Cloudy
8:09 PM 32.0 °F 26.4 °F 28.4 °F 87% 29.77 in 7.0 mi SSE 5.8 mph - N/A   Mostly Cloudy
8:53 PM 32.0 °F 26.4 °F 28.0 °F 85% 29.84 in 6.0 mi ESE 5.8 mph - N/A   Overcast
9:53 PM 33.1 °F 24.9 °F 28.9 °F 85% 29.82 in 6.0 mi South 10.4 mph - N/A   Mostly Cloudy
10:53 PM 32.0 °F 26.4 °F 28.0 °F 85% 29.84 in 6.0 mi South 5.8 mph - N/A   Overcast
11:53 PM 33.1 °F 26.9 °F 28.0 °F 82% 29.86 in 8.0 mi West 6.9 mph - N/A   Overcast